STARLINK-36704, 67697

Orbit data source: Space-Track

STARLINK-36704, 67697 is a payload satellite owned by SpaceX/Seattle (US) in SSO that was launched on Sat, 07 Feb 2026 UTC via an FALCON 9 launch vehicle from the Air Force Western Test Range (AFWTR). Payload-class satellites include a variety of spacecraft equipped with specific instruments for various scientific and technological missions. These include communications satellites like Starlink; space stations such as the ISS; scientific satellites like the Hubble; Earth observation satellites from companies like Planet Labs, Umbra, and HawkEye 360; GPS; miniature CubeSats for education and research; and military/defense satellites.

Loading next visibility...
Identifier
67697, 2026-025E
Orbit
SSO
Country
Flag of USUS
Related business
Manufacturer
SpaceX/Seattle
Mission
Operational spacecraft
Bus & Motor
STARLINK V2MO, Unknown motor
Mass
575 kg wet, ~530 kg dry
Launch date (UTC)
2026-02-07 (2 months ago)
Launch vehicle
FALCON 9
Launch site
Air Force Western Test Range (AFWTR)
Object type
Payload
Rocket body
Debris
Shape & HBR
Unknown shape, 17.7 m
Radar Cross Section
RCS unknown

Expand to show TLE details & history
Last TLE update: 15 hours ago

TLE from 15 hours ago
0 STARLINK-36704
1 67697U 26025E   26103.73520309  .00017665  00000-0  54854-3 0  9995
2 67697  97.2820 215.9281 0000344  36.7311 323.3955 15.33426971 11389
Epoch: 2026-04-13T17:38Z
TLE epoch observation values (Epoch: 2026-04-13T17:38:41.546Z)
Latitude
-0.00008°
Longitude
109.33346°
Altitude
468.52 km
Speed
7.632 km/s
True Right ascension
14h 23m 42s
True Declination
0° 00' 00"
Sunlit
Object was in full shadow at epoch
Visualization orbit readout
Latitude
Unknown
Longitude
Unknown
Altitude
Unknown
Speed
Unknown
Apparent Right ascension
Unknown
Apparent Declination
Unknown
Sunlit
N/A
Visualization observer readout
Local Sidereal Time
15:06:36
Azimuth
Unknown
Elevation
Unknown
Doppler factor
Unknown
Orbital elements
Apogee altitude
462.775 km
Perigee altitude
462.304 km
Semi-major axis
6,840.676 km
Eccentricity
0.00003
Inclination
97.282°
RAAN
215.9281°
Arg. of periapsis
36.7311°
True anomaly
323.39315°
Mean anomaly
323.3955°
Eccentric anomaly
323.39432°
Mean motion
3.83614 °/min
Orbital period
93.84 mins
BSTAR
0.00054854
Loading maneuver chart data...
Computing Atmospheric mass density...
Loading historical data...
Loading historical data...
Loading historical data...
Loading historical data...
Loading historical data...
Loading historical data...
Loading historical data...

Documentation

Showing up to 5 results
|